Location: Caltech
(34.1382°N, 118.1253°W)
Time: 08:59:53
(UTC-07:00)

Iridium 65 - Visible Passes

Search period start: 16 April 2014 00:00
Search period end: 26 April 2014 00:00
Orbit: 776 x 779 km, 86.4° (Epoch: 16 April)

Date Brightness Start Highest point End Pass type
(mag) Time Alt. Az. Time Alt. Az. Time Alt. Az.
16 Apr 6.5 22:11:18 10° N 22:14:47 43° N 22:14:47 43° N visible
17 Apr 6.2 21:37:54 10° N 21:41:42 42° NE 21:41:42 42° NE visible
17 Apr 8.2 23:20:28 10° NW 23:22:11 14° WNW 23:22:11 14° WNW visible
18 Apr 6.7 21:04:57 10° NNE 21:08:38 26° ENE 21:08:38 26° ENE visible
18 Apr 7.3 22:45:34 10° NNW 22:49:08 26° WNW 22:49:08 26° WNW visible
19 Apr 7.3 20:32:54 10° NE 20:35:32 14° ENE 20:35:35 14° ENE visible
19 Apr 6.2 22:11:30 10° NNW 22:16:05 51° WNW 22:16:05 51° WNW visible
20 Apr 5.4 21:37:52 10° N 21:43:03 78° E 21:43:03 78° E visible
21 Apr 5.9 21:04:38 10° NNE 21:09:31 40° E 21:10:03 38° E visible
21 Apr 7.7 22:46:19 10° NW 22:49:51 19° W 22:50:33 18° W visible
22 Apr 6.8 20:31:56 10° NNE 20:35:48 21° E 20:37:04 19° E visible
22 Apr 6.8 22:11:51 10° NNW 22:16:34 36° W 22:17:35 33° WSW visible
23 Apr 7.5 20:01:12 10° ENE 20:01:58 10° ENE 20:02:43 10° E visible
23 Apr 5.7 21:37:59 10° N 21:43:10 70° W 21:44:38 46° SSW visible
24 Apr 5.5 21:04:30 10° N 21:09:39 60° E 21:11:42 35° SSE visible
24 Apr 8.2 22:47:43 10° NW 22:49:44 12° W 22:51:45 10° WSW visible
25 Apr 6.3 20:31:26 10° NNE 20:36:01 31° E 20:38:48 19° SE visible
25 Apr 7.5 22:12:24 10° NNW 22:16:31 24° W 22:19:19 16° SW visible
